[[{"header":{"parameterUnit":"m.s-1","parameterCategory":1,"la1":30.2991,"la2":30.254,"lo1":-89.0895,"lo2":-89.0444,"dy":0.0017,"dx":0.0017,"nx":28,"ny":28,"refTime":"2023-09-25T03:00:00:Z","depth":0,"parameterNumber":2,"parameterNumberName":"U-component_of_WINDS"},"data":[0,0,0,0,0,0,0,0,0,0,0,0,0,0,0,0,0,0,0,0,0,0,0,0,0,0,0,0,0,0,0,0,0,0,0,0,0,0,0,0,0,0,0,0,0,0,0,0,0,0,0,0,0,0,0,0,0,0,0.6049,0.605,0,0.6167,0.6169,0.617,0.6239,0.6239,0.6239,0.624,0.6359,0.6361,0.6364,0,0,0,0,0,0,0,0,0,0,0,0,0,0.588,0.5883,0.6049,0.605,0.6052,0.6167,0.6169,0.617,0.6239,0.6239,0.6239,0.624,0.6358,0.6361,0.6365,0,0,0,0,0,0,0,0,0,0,0,0,0,0.5971,0.5884,0.6049,0.61,0.6106,0.6167,0.6169,0.6171,0.6239,0.6239,0.624,0.624,0.6356,0.6361,0.6365,0.6383,0,0,0.6378,0.638,0,0,0,0,0,0,0,0,0.5966,0.5977,0.6091,0.6096,0.6103,0.6189,0.6153,0.6242,0.6239,0.6188,0.624,0.624,0.6302,0.631,0.6332,0.6389,0.6394,0.6379,0.6381,0.6383,0.6384,0,0,0,0,0,0,0,0.596,0.5973,0.6096,0.6092,0.61,0.6116,0.613,0.617,0.6241,0.6193,0.6198,0.6211,0.6305,0.6327,0.6335,0.6396,0.6379,0.6382,0.6385,0.6387,0.6474,0.6474,0,0,0,0,0,0,0.5945,0.5967,0.6092,0.6099,0.6034,0.6119,0.6134,0.6161,0.6241,0.6253,0.6211,0.6214,0.632,0.633,0.6339,0.6366,0.6383,0.6387,0.639,0.6474,0.6474,0.6474,0,0,0,0,0,0,0.5941,0.5956,0.6087,0.6035,0.6053,0.6122,0.6151,0.6163,0.6185,0.6254,0.6267,0.6221,0.632,0.6333,0.6372,0.6371,0.6389,0.6393,0.6475,0.6474,0.6474,0.6419,0,0,0,0,0,0,0.5936,0.5954,0.5962,0.6034,0.6055,0.6118,0.6151,0.6165,0.6193,0.6198,0.6267,0.6279,0.6322,0.6365,0.6376,0.6378,0.6397,0.6475,0.6475,0.6474,0.6422,0.6417,0.6413,0,0,0,0,0,0.593,0.5942,0.5962,0.5977,0.6067,0.6118,0.613,0.618,0.6193,0.6201,0.6245,0.6277,0.637,0.6369,0.6382,0.6384,0.6475,0.6475,0.6474,0.6423,0.6418,0.6414,0,0,0,0,0,0,0.5867,0.5952,0.5976,0.6011,0.6057,0.613,0.6142,0.6172,0.6215,0.6218,0.6277,0.6292,0.6325,0.6359,0.6356,0.6406,0.6426,0.6428,0.6383,0.6378,0.6374,0.6365,0.64,0,0,0,0,0,0.5857,0.5892,0.5965,0.5989,0.6011,0.6072,0.6096,0.6131,0.618,0.62,0.6247,0.6293,0.6333,0.6358,0.6398,0.6427,0.6443,0.6435,0.6431,0.6427,0.6428,0.6446,0.6443,0.6472,0.6472,0.6472,0,0,0.5837,0.5888,0.5906,0.5977,0.6017,0.6051,0.6088,0.6123,0.6149,0.6205,0.6245,0.6281,0.6336,0.637,0.6387,0.6399,0.6424,0.6427,0.6423,0.6426,0.6445,0.6442,0.6439,0.6471,0.6471,0.6471,0,0,0.5818,0.586,0.5885,0.5924,0.5984,0.6025,0.6031,0.6099,0.6126,0.6167,0.6209,0.6241,0.6308,0.6346,0.6373,0.6369,0.6399,0.6381,0.6359,0.6375,0.6373,0.6371,0.6369,0.6368,0.6381,0.6381,0.6381,0,0.5785,0.584,0.5894,0.5927,0.5956,0.601,0.6035,0.607,0.6139,0.6158,0.617,0.6256,0.6297,0.634,0.6339,0.636,0.6368,0.6373,0.6369,0.6368,0.6367,0.6366,0.6365,0.6378,0.6379,0.6379,0.6379,0,0.5796,0.5833,0.5846,0.5913,0.5944,0.5972,0.603,0.6055,0.6087,0.6126,0.6167,0.6218,0.627,0.6283,0.6314,0.6331,0.6336,0.6358,0.6379,0.6361,0.636,0.636,0.6375,0.6375,0.6376,0.6377,0,0,0.574,0.5837,0.584,0.5871,0.5941,0.597,0.6001,0.6053,0.6073,0.6119,0.6145,0.6201,0.6222,0.6254,0.629,0.6304,0.6297,0.6324,0.6327,0.6317,0.6317,0.63,0.6298,0.6317,0.6318,0.6318,0.6313,0,0.5731,0.579,0.5839,0.5879,0.5914,0.5965,0.5992,0.6037,0.6075,0.6109,0.6151,0.6189,0.6214,0.6233,0.625,0.6294,0.6297,0.6295,0.6342,0.6343,0.6326,0.6298,0.628,0.6273,0.6313,0.6313,0.6313,0,0.5728,0.5772,0.5816,0.5883,0.5899,0.5922,0.5973,0.6006,0.6058,0.6084,0.612,0.6158,0.6192,0.621,0.6257,0.6254,0.6277,0.6301,0.6302,0.6308,0.6326,0.6302,0.6272,0.627,0.6313,0.6313,0.6313,0,0.5681,0.5753,0.5788,0.5813,0.5892,0.5907,0.594,0.5993,0.6021,0.6065,0.6083,0.6131,0.6156,0.6192,0.6241,0.625,0.6283,0.6305,0.6305,0.6304,0.6309,0.6308,0.6281,0.6325,0.6325,0.6325,0.6325,0,0.5665,0.5689,0.5768,0.579,0.5818,0.5875,0.5902,0.594,0.5987,0.6016,0.6063,0.6089,0.6153,0.6187,0.6226,0.6259,0.627,0.6292,0.6302,0.6287,0.6284,0.6302,0.6303,0.6324,0.6324,0.6324,0.6325,0,0.5618,0.5672,0.5713,0.5785,0.5803,0.5821,0.5882,0.5905,0.5945,0.5982,0.5994,0.6057,0.6099,0.6152,0.6211,0.6237,0.6266,0.6281,0.6248,0.6254,0.625,0.6249,0.6232,0.6233,0.6277,0.6276,0.6276,0,0.5603,0.5624,0.5697,0.5721,0.5753,0.579,0.5819,0.5876,0.5904,0.5965,0.598,0.6026,0.6066,0.6131,0.6181,0.6226,0.6243,0.6234,0.625,0.6235,0.6242,0.624,0.6242,0.6229,0.6229,0.6228,0.6227,0,0.5572,0.5598,0.5638,0.5687,0.572,0.5762,0.5805,0.5821,0.5887,0.5915,0.596,0.5991,0.6051,0.6096,0.6148,0.6182,0.6215,0.6222,0.6225,0.6209,0.6189,0.6199,0.6236,0.6222,0.6223,0.6223,0.6223,0.6224,0.554,0.5561,0.5616,0.5659,0.5698,0.5737,0.5762,0.5806,0.5844,0.5898,0.593,0.5972,0.6024,0.6098,0.613,0.6164,0.6176,0.618,0.618,0.618,0.6175,0.6184,0.6174,0.6174,0.6174,0.6174,0.6175,0,0.5511,0.5549,0.5588,0.5648,0.5681,0.5711,0.5761,0.5787,0.5824,0.587,0.5909,0.5959,0.6003,0.6058,0.6105,0.6122,0.6138,0.6132,0.6131,0.6138,0.6162,0.6155,0.6118,0.6118,0.6118,0.6118,0.6118,0.6118,0.5499,0.5535,0.5567,0.5622,0.5661,0.5704,0.573,0.5766,0.5803,0.5858,0.5895,0.593,0.598,0.6031,0.6072,0.6087,0.6102,0.6091,0.611,0.6131,0.6136,0.6141,0.6135,0.6094,0.6094,0.6083,0.6083,0.6083]},{"header":{"parameterUnit":"m.s-1","parameterCategory":1,"la1":30.2991,"la2":30.254,"lo1":-89.0895,"lo2":-89.0444,"dy":0.0017,"dx":0.0017,"nx":28,"ny":28,"refTime":"2023-09-25T03:00:00:Z","depth":0,"parameterNumber":3,"parameterNumberName":"V-component_of_WINDS"},"data":[0,0,0,0,0,0,0,0,0,0,0,0,0,0,0,0,0,0,0,0,0,0,0,0,0,0,0,0,0,0,0,0,0,0,0,0,0,0,0,0,0,0,0,0,0,0,0,0,0,0,0,0,0,0,0,0,0,0,3.9723,3.9723,0,3.9734,3.9734,3.9734,3.9706,3.9705,3.9704,3.9703,3.9712,3.9713,3.9715,0,0,0,0,0,0,0,0,0,0,0,0,0,3.9677,3.9678,3.9723,3.9723,3.9723,3.9733,3.9734,3.9734,3.9706,3.9705,3.9704,3.9703,3.9712,3.9713,3.9715,0,0,0,0,0,0,0,0,0,0,0,0,0,3.9693,3.9679,3.9723,3.9711,3.971,3.9733,3.9734,3.9734,3.9706,3.9705,3.9703,3.9702,3.9712,3.9713,3.9715,3.9751,0,0,3.972,3.972,0,0,0,0,0,0,0,0,3.9693,3.9695,3.9712,3.9711,3.971,3.9717,3.9721,3.9739,3.9706,3.9707,3.9703,3.9702,3.9715,3.9716,3.9721,3.9751,3.9751,3.972,3.9721,3.9721,3.9722,0,0,0,0,0,0,0,3.9691,3.9694,3.9727,3.9713,3.9711,3.9704,3.9705,3.9724,3.9718,3.9707,3.9705,3.9707,3.9714,3.9719,3.9721,3.9752,3.972,3.9721,3.9722,3.9723,3.9811,3.9812,0,0,0,0,0,0,3.9692,3.9694,3.9727,3.9727,3.9698,3.9706,3.9707,3.9716,3.9718,3.9717,3.9708,3.9706,3.9717,3.9719,3.9721,3.9762,3.9721,3.9723,3.9724,3.981,3.9811,3.9813,0,0,0,0,0,0,3.9691,3.9695,3.9726,3.971,3.9713,3.9708,3.9719,3.9717,3.9722,3.9719,3.9717,3.9715,3.9716,3.9719,3.9743,3.9762,3.9724,3.9725,3.9808,3.981,3.9812,3.9845,0,0,0,0,0,0,3.969,3.9695,3.9709,3.9711,3.9714,3.9749,3.972,3.9718,3.9725,3.9722,3.9724,3.9724,3.9716,3.9741,3.9745,3.9764,3.9726,3.9806,3.9809,3.9811,3.9842,3.9848,3.9853,0,0,0,0,0,3.9689,3.9718,3.971,3.9714,3.9732,3.975,3.9752,3.9743,3.9727,3.974,3.9738,3.9723,3.976,3.9744,3.9748,3.9767,3.9805,3.9808,3.9811,3.984,3.9847,3.9853,0,0,0,0,0,0,3.9718,3.9718,3.9709,3.974,3.9745,3.9745,3.9762,3.9751,3.976,3.9757,3.9745,3.9745,3.9772,3.9772,3.9755,3.9802,3.978,3.9784,3.98,3.9807,3.9812,3.9811,3.9728,0,0,0,0,0,3.9728,3.9744,3.9742,3.977,3.9773,3.9767,3.9775,3.9767,3.9772,3.9774,3.9773,3.9778,3.9791,3.9799,3.9811,3.9843,3.9843,3.9859,3.9864,3.9868,3.9871,3.9888,3.9894,3.9823,3.9823,3.9823,0,0,3.9749,3.9751,3.9761,3.9776,3.9779,3.9794,3.9769,3.9787,3.9798,3.9777,3.9799,3.9799,3.9804,3.9832,3.9845,3.9834,3.9891,3.9872,3.9876,3.9876,3.9891,3.9898,3.9904,3.9825,3.9825,3.9824,0,0,3.9794,3.9798,3.9821,3.9825,3.983,3.9826,3.9832,3.9834,3.9833,3.9856,3.984,3.9854,3.9876,3.9879,3.9884,3.9932,3.9918,3.9936,3.9963,3.9979,3.9985,3.999,4.0005,4.0011,3.994,3.994,3.994,0,3.9819,3.9842,3.9833,3.9852,3.9859,3.9841,3.9863,3.9868,3.9877,3.9881,3.9869,3.9896,3.9898,3.9926,3.9938,3.9943,3.9948,3.9935,3.9985,3.999,3.9994,4.0009,4.0015,3.9942,3.9941,3.9941,3.9941,0,3.9872,3.9889,3.9906,3.9915,3.9924,3.9945,3.9938,3.9948,3.994,3.9938,3.9961,3.9963,3.9974,3.9981,3.9973,4.0008,4.0001,3.9987,3.9964,4.0003,4.0017,4.0022,3.9945,3.9944,3.9943,3.9943,0,0,3.9934,3.994,3.9946,3.995,3.9955,3.9967,3.9987,3.9998,4.0006,4.0014,4.0029,4.0048,4.0036,4.0041,4.0034,4.0048,4.0085,4.0033,4.0033,4.0041,4.0122,4.0131,4.0138,4.0077,4.0078,4.0079,4.0121,0,3.9978,4.0012,4.0005,4.0038,4.0052,4.0036,4.0053,4.0058,4.0057,4.0068,4.0066,4.008,4.0063,4.0066,4.0079,4.0077,4.01,4.0074,4.0089,4.009,4.0087,4.0145,4.0154,4.0194,4.0126,4.0127,4.0128,0,4.0033,4.0043,4.0077,4.008,4.0086,4.0101,4.0111,4.0123,4.0128,4.0126,4.0132,4.0122,4.0141,4.012,4.0145,4.0128,4.0134,4.0134,4.0135,4.0134,4.011,4.0144,4.0207,4.0212,4.0136,4.0136,4.0135,0,4.0073,4.0095,4.0118,4.0122,4.0126,4.0137,4.014,4.0144,4.0151,4.016,4.0164,4.0175,4.018,4.0188,4.0182,4.0167,4.0208,4.0186,4.0205,4.0205,4.0213,4.0212,4.0275,4.022,4.022,4.022,4.022,0,4.0122,4.0143,4.0136,4.015,4.0173,4.0165,4.0188,4.0189,4.0193,4.0206,4.0194,4.0206,4.0197,4.0209,4.0204,4.0225,4.0228,4.0226,4.0224,4.0226,4.0226,4.0228,4.0225,4.0221,4.0221,4.0221,4.022,0,4.0169,4.0166,4.019,4.0192,4.0194,4.021,4.0212,4.0225,4.0223,4.024,4.0244,4.024,4.0253,4.0248,4.0262,4.0259,4.0285,4.0281,4.0283,4.0281,4.03,4.0298,4.0366,4.0374,4.0315,4.0316,4.0316,0,4.02,4.0216,4.022,4.0228,4.0231,4.0245,4.0253,4.0246,4.0254,4.0261,4.0273,4.0285,4.0295,4.0317,4.0315,4.0326,4.032,4.0343,4.0321,4.0323,4.0318,4.0317,4.0318,4.0347,4.0348,4.0348,4.0349,0,4.0253,4.025,4.0262,4.0273,4.0282,4.0291,4.0298,4.0305,4.0298,4.0308,4.0322,4.0329,4.0344,4.0356,4.0366,4.0367,4.0356,4.0356,4.036,4.0362,4.0362,4.036,4.0293,4.0354,4.0353,4.0353,4.0353,4.0352,4.0292,4.0305,4.031,4.0323,4.0328,4.0335,4.0347,4.0347,4.0358,4.0369,4.0365,4.038,4.0385,4.0397,4.04,4.0412,4.0403,4.041,4.0412,4.0413,4.0415,4.0362,4.0414,4.0414,4.0414,4.0414,4.0413,0,4.0343,4.0346,4.0358,4.0368,4.0379,4.0369,4.0376,4.0385,4.0399,4.0405,4.0415,4.043,4.0442,4.0442,4.0453,4.0462,4.0457,4.0465,4.0463,4.0463,4.0423,4.0417,4.0468,4.0468,4.0468,4.0468,4.0468,4.0468,4.0371,4.0392,4.039,4.0414,4.0417,4.0432,4.0437,4.0443,4.0447,4.0466,4.0475,4.0476,4.0479,4.049,4.05,4.0499,4.0503,4.0513,4.051,4.0472,4.0466,4.0461,4.0455,4.0514,4.0514,4.0549,4.055,4.055]}]]